TimeMST,TemperatureF,Dew PointF,Humidity,Sea Level PressureIn,VisibilityMPH,Wind Direction,Wind SpeedMPH,Gust SpeedMPH,PrecipitationIn,Events,Conditions,WindDirDegrees,DateUTC
12:15 AM,15.8,14.0,93,29.81,5.0,North,3.5,-,N/A,,Clear,360,2013-02-26 07:15:00
12:35 AM,10.4,6.8,85,29.81,0.5,Calm,Calm,-,N/A,,Unknown,0,2013-02-26 07:35:00
12:55 AM,10.4,6.8,85,29.81,0.2,NNW,5.8,-,N/A,,Unknown,330,2013-02-26 07:55:00
1:15 AM,15.8,12.2,86,29.81,7.0,North,8.1,-,N/A,,Clear,360,2013-02-26 08:15:00
1:35 AM,15.8,12.2,86,29.80,7.0,North,8.1,-,N/A,,Clear,360,2013-02-26 08:35:00
1:55 AM,15.8,12.2,86,29.80,7.0,North,6.9,-,N/A,,Clear,360,2013-02-26 08:55:00
2:15 AM,15.8,12.2,86,29.79,7.0,North,5.8,-,N/A,,Clear,360,2013-02-26 09:15:00
2:35 AM,17.6,15.8,93,29.78,10.0,North,4.6,-,N/A,,Clear,350,2013-02-26 09:35:00
2:55 AM,17.6,15.8,93,29.78,10.0,North,4.6,-,N/A,,Clear,10,2013-02-26 09:55:00
3:15 AM,17.6,15.8,93,29.78,10.0,Calm,Calm,-,N/A,,Clear,0,2013-02-26 10:15:00
3:35 AM,15.8,15.8,100,29.78,9.0,Calm,Calm,-,N/A,,Clear,0,2013-02-26 10:35:00
3:55 AM,15.8,14.0,93,29.78,8.0,Calm,Calm,-,N/A,,Mostly Cloudy,0,2013-02-26 10:55:00
4:15 AM,15.8,12.2,86,29.78,7.0,Calm,Calm,-,N/A,,Overcast,0,2013-02-26 11:15:00
4:35 AM,17.6,15.8,93,29.79,10.0,SW,4.6,-,N/A,,Overcast,220,2013-02-26 11:35:00
4:55 AM,19.4,15.8,86,29.78,10.0,South,3.5,-,N/A,,Overcast,170,2013-02-26 11:55:00
5:15 AM,19.4,15.8,86,29.78,10.0,Calm,Calm,-,N/A,,Overcast,0,2013-02-26 12:15:00
5:35 AM,19.4,17.6,93,29.79,10.0,SE,3.5,-,N/A,,Overcast,140,2013-02-26 12:35:00
5:55 AM,19.4,15.8,86,29.81,10.0,North,3.5,-,N/A,,Overcast,350,2013-02-26 12:55:00
6:15 AM,21.2,17.6,86,29.82,10.0,North,6.9,-,N/A,,Overcast,10,2013-02-26 13:15:00
6:35 AM,21.2,17.6,86,29.82,10.0,North,3.5,-,N/A,,Overcast,360,2013-02-26 13:35:00
6:55 AM,23.0,17.6,80,29.84,10.0,ENE,10.4,-,N/A,,Overcast,70,2013-02-26 13:55:00
7:15 AM,24.8,15.8,69,29.84,10.0,SSE,5.8,-,N/A,,Overcast,150,2013-02-26 14:15:00
7:35 AM,23.0,17.6,80,29.84,2.5,SSW,8.1,-,N/A,,Overcast,210,2013-02-26 14:35:00
7:55 AM,21.2,19.4,93,29.84,1.0,WSW,4.6,-,N/A,,Overcast,250,2013-02-26 14:55:00
8:15 AM,23.0,19.4,86,29.85,1.0,WSW,3.5,-,N/A,,Overcast,250,2013-02-26 15:15:00
8:35 AM,24.8,21.2,86,29.86,0.5,NNW,4.6,-,N/A,,Overcast,330,2013-02-26 15:35:00
8:55 AM,24.8,21.2,86,29.86,5.0,NNW,3.5,-,N/A,,Mostly Cloudy,330,2013-02-26 15:55:00
9:15 AM,24.8,21.2,86,29.86,2.5,NNW,3.5,-,N/A,,Overcast,330,2013-02-26 16:15:00
9:35 AM,26.6,23.0,86,29.85,8.0,NW,5.8,-,N/A,,Overcast,320,2013-02-26 16:35:00
9:55 AM,28.4,24.8,86,29.84,10.0,WNW,5.8,-,N/A,,Overcast,300,2013-02-26 16:55:00
10:15 AM,28.4,23.0,80,29.84,10.0,NW,8.1,-,0.01,,Scattered Clouds,310,2013-02-26 17:15:00
10:35 AM,30.2,21.2,69,29.84,10.0,NNW,9.2,-,0.01,,Scattered Clouds,330,2013-02-26 17:35:00
10:55 AM,32.0,21.2,64,29.84,10.0,NNW,8.1,-,0.01,,Mostly Cloudy,340,2013-02-26 17:55:00
11:15 AM,30.2,21.2,69,29.84,10.0,Calm,Calm,-,N/A,,Mostly Cloudy,0,2013-02-26 18:15:00
11:35 AM,33.8,21.2,60,29.84,10.0,North,11.5,-,N/A,,Overcast,10,2013-02-26 18:35:00
11:55 AM,35.6,19.4,52,29.83,10.0,North,13.8,-,N/A,,Overcast,10,2013-02-26 18:55:00
12:15 PM,35.6,19.4,52,29.83,10.0,North,17.3,-,N/A,,Overcast,10,2013-02-26 19:15:00
12:35 PM,33.8,19.4,56,29.83,10.0,NNW,23.0,27.6,N/A,,Overcast,330,2013-02-26 19:35:00
12:55 PM,32.0,19.4,60,29.84,10.0,NNW,20.7,28.8,N/A,,Overcast,340,2013-02-26 19:55:00
1:15 PM,30.2,21.2,69,29.86,10.0,North,24.2,28.8,N/A,,Overcast,350,2013-02-26 20:15:00
1:35 PM,30.2,21.2,69,29.86,10.0,NNW,26.5,-,N/A,,Overcast,330,2013-02-26 20:35:00
1:55 PM,30.2,21.2,69,29.87,7.0,NNW,24.2,31.1,N/A,,Overcast,330,2013-02-26 20:55:00
2:15 PM,28.4,23.0,80,29.87,9.0,NNW,24.2,29.9,N/A,,Overcast,330,2013-02-26 21:15:00
2:35 PM,28.4,23.0,80,29.89,8.0,NNW,20.7,27.6,N/A,,Overcast,340,2013-02-26 21:35:00
2:55 PM,30.2,23.0,75,29.89,10.0,NNW,19.6,26.5,N/A,,Overcast,340,2013-02-26 21:55:00
3:15 PM,30.2,21.2,69,29.90,10.0,NNW,25.3,31.1,N/A,,Overcast,340,2013-02-26 22:15:00
3:35 PM,30.2,21.2,69,29.91,10.0,NNW,24.2,32.2,N/A,,Overcast,340,2013-02-26 22:35:00
3:55 PM,28.4,21.2,74,29.92,9.0,NNW,21.9,32.2,N/A,,Overcast,340,2013-02-26 22:55:00
4:15 PM,30.2,21.2,69,29.93,10.0,North,20.7,31.1,N/A,,Overcast,350,2013-02-26 23:15:00
4:35 PM,30.2,23.0,75,29.94,5.0,North,16.1,-,N/A,,Overcast,360,2013-02-26 23:35:00
4:55 PM,28.4,23.0,80,29.95,5.0,North,26.5,29.9,N/A,,Overcast,360,2013-02-26 23:55:00
5:15 PM,28.4,23.0,80,29.96,6.0,NNW,18.4,24.2,N/A,,Overcast,340,2013-02-27 00:15:00
5:35 PM,30.2,21.2,69,29.97,10.0,NNW,25.3,-,N/A,,Mostly Cloudy,340,2013-02-27 00:35:00
5:55 PM,30.2,19.4,64,29.98,9.0,North,27.6,36.8,N/A,,Overcast,350,2013-02-27 00:55:00
6:15 PM,30.2,19.4,64,29.99,10.0,NNW,19.6,27.6,N/A,,Overcast,340,2013-02-27 01:15:00
6:35 PM,30.2,19.4,64,30.00,10.0,NNW,18.4,25.3,N/A,,Overcast,330,2013-02-27 01:35:00
6:55 PM,30.2,17.6,60,30.02,10.0,NNW,18.4,-,N/A,,Overcast,330,2013-02-27 01:55:00
7:15 PM,30.2,17.6,60,30.03,10.0,NNW,16.1,21.9,N/A,,Overcast,340,2013-02-27 02:15:00
7:35 PM,30.2,17.6,60,30.03,10.0,NNW,19.6,24.2,N/A,,Overcast,330,2013-02-27 02:35:00
8:15 PM,28.4,17.6,64,30.05,10.0,NNW,19.6,24.2,N/A,,Overcast,340,2013-02-27 03:15:00
8:35 PM,28.4,17.6,64,30.06,10.0,North,17.3,27.6,N/A,,Overcast,350,2013-02-27 03:35:00
8:55 PM,28.4,17.6,64,30.07,10.0,NNW,18.4,24.2,N/A,,Overcast,340,2013-02-27 03:55:00
9:15 PM,28.4,17.6,64,30.08,10.0,NNW,16.1,-,N/A,,Overcast,330,2013-02-27 04:15:00
9:55 PM,28.4,17.6,64,30.10,10.0,NNW,18.4,-,N/A,,Overcast,340,2013-02-27 04:55:00
10:15 PM,28.4,17.6,64,30.10,10.0,NNW,17.3,-,N/A,,Overcast,340,2013-02-27 05:15:00
10:35 PM,28.4,17.6,64,30.11,10.0,NNW,13.8,-,N/A,,Overcast,340,2013-02-27 05:35:00
10:55 PM,28.4,15.8,59,30.11,10.0,NNW,17.3,24.2,N/A,,Overcast,330,2013-02-27 05:55:00
11:15 PM,28.4,15.8,59,30.11,10.0,NNW,18.4,24.2,N/A,,Overcast,330,2013-02-27 06:15:00
11:35 PM,26.6,14.0,59,30.12,10.0,NNW,15.0,21.9,N/A,,Overcast,330,2013-02-27 06:35:00
11:55 PM,26.6,14.0,59,30.12,10.0,NNW,16.1,-,N/A,,Overcast,330,2013-02-27 06:55:00